Regional Weather Roundup
Issued by NWS Albany, NY

Home | Current Version | Previous Version | Graphics & Text | Print | Product List | Glossary Off
Versions: 1 2 3 4 5 6 7 8 9 10 11 12 13 14 15 16 17 18 19 20 21 22 23 24 25 26 27 28 29 30 31 32 33 34 35 36 37 38 39 40 41 42 43 44 45 46 47 48 49 50

000
ASUS41 KALY 011810
RWRALY

NEW YORK STATE HOURLY WEATHER ROUNDUP
NATIONAL WEATHER SERVICE ALBANY NY
200 PM EDT MON SEP 01 2014

NOTE: "FAIR" INDICATES FEW OR NO CLOUDS BELOW 12,000 FEET WITH NO
SIGNIFICANT WEATHER AND/OR NO OBSTRUCTIONS TO VISIBILITY.

NYZ032-033-038>043-046>054-057>066-NYZ062>081-011900-
EAST


CITY           SKY/WX    TMP DP  RH WIND       PRES   REMARKS
ALBANY         MOSUNNY   85  65  51 NW9       29.96F
GLENS FALLS    PTSUNNY   83  68  60 S8        29.94F
POUGHKEEPSIE   PTSUNNY   85  68  56 SW10      29.95F
NEWBURGH       PTSUNNY   82  72  69 W9        29.99F
MONTGOMERY     CLOUDY    83  68  60 SW8       29.97F
WHITE PLAINS   CLOUDY    83  69  62 CALM      29.97F
ISLIP          MOSUNNY   83  70  64 S9        29.96F
NEW YORK CITY  PTSUNNY   86  69  56 SW12      29.96F HX  90
CENTRAL PARK   CLOUDY    84  69  60 VRB3      29.99F
$$

NYZ005>009-017-018-044>046-055-056-011900-
CENTRAL


CITY           SKY/WX    TMP DP  RH WIND       PRES   REMARKS
FULTON         PTSUNNY   82  67  60 S7        29.94F
SYRACUSE       PTSUNNY   83  66  56 SW6       29.94F
ROME           PTSUNNY   81  67  62 SE3       29.98S
ELMIRA         PTSUNNY   81  70  69 CALM      29.97F
BINGHAMTON     CLOUDY    76  67  73 S9        30.02F
MONTICELLO     CLOUDY    79  68  69 CALM      30.04S
$$

NYZ026>034-041>043-011900-
NORTH


CITY           SKY/WX    TMP DP  RH WIND       PRES   REMARKS
WATERTOWN      MOSUNNY   80  68  66 W10       29.94F
FORT DRUM      NOT AVBL
MASSENA        MOSUNNY   78  66  66 W7        29.93F
SARANAC LAKE   MOSUNNY   78  60  53 W10       29.98F
PLATTSBURGH    MOSUNNY   80  67  64 S8        29.92F
$$

NYZ001>004-010>016-019>021-011900-
WEST


CITY           SKY/WX    TMP DP  RH WIND       PRES   REMARKS
NIAGARA FALLS  PTSUNNY   83  69  62 SW16      29.90F
BUFFALO        MOSUNNY   82  68  62 SW10      29.92F
DUNKIRK        CLOUDY    79  71  76 VRB7      29.93F
JAMESTOWN      CLOUDY    75  68  78 S10       29.99F
WELLSVILLE     PTSUNNY   77  66  68 S7        30.04F
ROCHESTER      MOSUNNY   83  67  58 SW5       29.92F
PENN YAN       PTSUNNY   82  68  62 S7        29.97F
$$

             KEY
       WCI = WIND CHILL INDEX
       VSB = VISIBILITY
       HX  = HEAT INDEX
$$



USA.gov is the U.S. government's official web portal to all federal, state and local government web resources and services.